Location: Campillo
(40.8621°N, 4.2488°W)
Time: 17:55:58
(UTC+00:00)

Cosmos 2084 - Pass Details

Date: 25 September 2021
Orbit: 528 x 653 km, 62.8° (Epoch: 28 October)

Event Time Altitude Azimuth Distance (km) Brightness Sun altitude
Exits shadow 04:44:45 - 189° (S) 2,232 6.2 -16.4°
Reaches altitude 10° 04:45:59 10° 183° (S) 1,766 5.7 -16.1°
Maximum altitude 04:49:33 33° 118° (ESE) 905 4.9 -15.5°
Drops below altitude 10° 04:53:12 10° 53° (NE) 1,807 7.0 -14.8°
Sets 04:55:34 0° 44° (NE) 2,720 7.8 -14.4°
